Left ArrowRight Arrow

38.83388, -104.82136

Hourly Observations for September 4, 2018

Temp ( °F °C ) Dew Point ( °F °C ) Humidity (%) Winds ( mph kmh ) Pressure ( in mb ) Visibility ( mi km ) Precip ( " mm )
12:58 am 00:58 Partly Cloudy 57 13.7 46 8 69 69 Calm 29.63 1004 10 16 0.00 0.00
1:58 am 01:58 Mostly Cloudy 56 13.3 47 8.5 73 73 NNW 5 7 29.64 1004 10 16 0.00 0.00
2:58 am 02:58 Mostly Clear 58 14.3 42 5.4 55 55 Calm 29.62 1003 10 16 0.00 0.00
3:58 am 03:58 Partly Cloudy 57 13.7 42 5.6 58 58 Calm 29.61 1003 10 16 0.00 0.00
4:58 am 04:58 Mostly Cloudy 58 14.7 40 4.4 50 50 Calm 29.60 1003 10 16 0.00 0.00
5:58 am 05:58 Mostly Cloudy 59 15 38 3.3 46 46 Calm 29.60 1003 10 16 0.00 0.00
6:58 am 06:58 Mostly Cloudy 61 16.2 37 2.7 41 41 Calm 29.61 1003 10 16 0.00 0.00
7:58 am 07:58 Mostly Cloudy 66 18.9 38 3.1 35 35 N 5 7 29.61 1003 10 16 0.00 0.00
8:58 am 08:58 Mostly Cloudy 69 20.5 37 3 32 32 N 7 11 29.60 1003 10 16 0.00 0.00
9:58 am 09:58 Sunny 71 21.6 40 4.3 32 32 Calm 29.62 1003 10 16 0.00 0.00
10:58 am 10:58 Partly Cloudy 73 22.7 44 6.8 36 36 ENE 8 13 29.63 1003 10 16 0.00 0.00
11:58 am 11:58 Partly Cloudy 74 23.3 42 5.6 32 32 NE 7 11 29.65 1004 5 8 0.00 0.00
12:46 pm 12:46 Mostly Sunny 73 23 37 3 27 27 NNE 12 19 29.65 1004 10 16 0.00 0.00
12:58 pm 12:58 Mostly Sunny 75 24 39 3.9 27 27 NE 9 15 29.63 1004 10 16 0.00 0.00
1:58 pm 13:58 Mostly Sunny 74 23.5 37 2.7 26 26 N 13 20 29.61 1003 10 16 0.00 0.00
2:58 pm 14:58 Mostly Cloudy 73 22.5 36 2.2 26 26 NNW 7 11 29.61 1003 10 16 0.00 0.00
3:58 pm 15:58 Mostly Cloudy 73 22.5 39 3.8 30 30 E 3 6 29.63 1003 10 16 0.00 0.00
4:58 pm 16:58 Mostly Cloudy 70 21.3 36 2.4 29 29 SE 7 11 29.64 1004 10 16 0.00 0.00
5:58 pm 17:58 Mostly Cloudy 70 21.3 36 2.3 29 29 Calm 29.64 1004 10 16 0.00 0.00
6:25 pm 18:25 Mostly Cloudy with Light Rain 70 21 37 3 31 31 Calm 29.65 1004 10 16 0.00 0.00
6:50 pm 18:50 Mostly Cloudy 68 20 43 6 40 40 Calm 29.65 1004 10 16 0.00 0.00
6:58 pm 18:58 Mostly Cloudy 69 20.3 39 3.8 34 34 Calm 29.65 1004 10 16 0.00 0.00
7:14 pm 19:14 Cloudy with Light Showers 70 21 41 5 35 35 NW 3 6 29.65 1004 10 16 0.00 0.00
7:53 pm 19:53 Mostly Cloudy 64 18 48 9 56 56 WNW 6 9 29.67 1005 10 16 0.00 0.00
7:58 pm 19:58 Mostly Cloudy 63 17.3 47 8.1 55 55 WNW 9 15 29.67 1005 10 16 0.01 0.25
8:58 pm 20:58 Mostly Cloudy 67 19.3 38 3.6 36 36 WNW 10 17 29.67 1005 10 16 0.00 0.00
9:58 pm 21:58 Mostly Cloudy 66 19 39 3.7 36 36 NW 9 15 29.68 1005 10 16 0.00 0.00
10:58 pm 22:58 Mostly Cloudy 65 18.1 42 5.3 43 43 NNW 7 11 29.70 1006 10 16 0.00 0.00
11:58 pm 23:58 Mostly Cloudy 62 16.6 45 7 53 53 WNW 3 6 29.72 1007 10 16 0.00 0.00

Powered by Vaisala Xweather